Regional Weather Roundup
Issued by NWS State College, PA

Home | Current Version | Previous Version | Text Only | Print | Product List | Glossary On
Versions: 1 2 3 4 5 6 7 8 9 10 11 12 13 14 15 16 17 18 19 20 21 22 23 24 25 26 27 28 29 30 31 32 33 34 35 36 37 38 39 40 41 42 43 44 45 46 47 48 49 50
000
ASUS41 KCTP 312303
RWRCTP

REGIONAL WEATHER ROUNDUP
NATIONAL WEATHER SERVICE STATE COLLEGE PA
700 PM EDT MON AUG 31 2015

Note: "fair" indicates few or no clouds below 12,000 feet with no
significant weather and/or obstructions to visibility.

* = STATION THAT DOES NOT REPORT PRECIPITATION /E.G. RAIN...SNOW...ETC/
    THUNDER OR FOG.

PAZ002>004-007>009-013>016-020>023-029>032-010000-
WESTERN PENNSYLVANIA

CITY           SKY/WX    TMP DP  RH WIND       PRES   REMARKS
ERIE           CLEAR     77  66  68 SW6       30.05F
MEADVILLE      CLEAR     79  65  62 NW5       30.08S
FRANKLIN*      CLEAR     79  66  65 NW3       30.10R
NEW CASTLE     FAIR      84  70  63 CALM      30.06S
BEAVER COUNTY  MOCLDY    84  64  51 N3        30.07R
BUTLER*        CLEAR     82  66  57 CALM      30.08S
PITTSBURGH INT PTCLDY    85  63  47 NW7       30.06R
PITTSBURGH     PTCLDY    85  57  38 NW3       30.05S
INDIANA*       CLEAR     84  66  54 NW7       30.10R
LATROBE        PTCLDY    84  63  48 CALM      30.06S
WASHINGTON CO* CLEAR     84  63  48 W3        30.08S
$$

PAZ004>006-010>012-017>019-024>028-033>037-041-042-045-046-049>053-010000-
CENTRAL PENNSYLVANIA

CITY           SKY/WX    TMP DP  RH WIND       PRES   REMARKS
BRADFORD       CLEAR     77  64  64 NW8       30.10R
DUBOIS         CLEAR     81  64  56 NW7       30.08R
CLEARFIELD     CLEAR     82  64  54 W5        30.07R
JOHNSTOWN      CLEAR     80  60  50 NW7       30.12R
ALTOONA        MOCLDY    79  68  69 S6        30.08R
STATE COLLEGE  PTCLDY    82  66  57 W7        30.05S
WILLIAMSPORT   CLEAR     83  70  64 CALM      29.98S
SELINSGROVE    PTCLDY    83  69  62 VRB5      30.00S
FT INDIANTOWN  CLEAR     84  68  59 VRB5      30.01S
CAPITAL CITY   PTCLDY    84  68  58 SW6       30.00F
HARRISBURG     PTCLDY    84  71  65 SW3       30.00S
YORK           MOCLDY    81  69  67 W3        30.02S
$$

PAZ038>040-043-044-047-048-054-055-060>062-067>071-010000-
EASTERN PENNSYLVANIA

CITY           SKY/WX    TMP DP  RH WIND       PRES   REMARKS
SCRANTON       PTCLDY    83  66  56 SW9       30.00S
MOUNT POCONO   PTCLDY    77  64  64 W6        30.06S
ALLENTOWN      PTCLDY    86  67  52 SW12      29.99S
QUAKERTOWN*    CLEAR     84  66  54 W5        30.01S
READING        PTCLDY    85  67  54 W9        29.99F
LANCASTER      PTCLDY    84  66  54 W8        30.01S
COATESVILLE    PTCLDY    81  72  74 SW5       30.04S
POTTSTOWN      PTCLDY    83  69  62 SW7       30.02R
BLUE BELL      PTCLDY    84  72  65 SW8       30.00S
DOYLESTOWN     PTCLDY    84  66  54 SW7       29.99S
WILLOW GROVE   NOT AVBL
NORTH PHILA    PTCLDY    87  66  49 W14       30.00S
PHILADELPHIA   PTCLDY    86  69  56 SW12      30.00S
$$



USA.gov is the U.S. government's official web portal to all federal, state and local government web resources and services.